| time (UTC) | temp F | wind direction | speed MPH | gust MPH | rain 1hr in | rain 24hr in | rain mn in | humidity % | barometer mb |
| 20260831101703 | 52 | 255 | 0.0 | 0.0 | 0.00 | 0.00 | 0.00 | 59 | 1021.7 |
| 20260831101216 | 52 | 255 | 0.0 | 0.0 | 0.00 | 0.00 | 0.00 | 59 | 1021.8 |
| 20260831100714 | 52 | 255 | 0.0 | 0.0 | 0.00 | 0.00 | 0.00 | 59 | 1021.8 |
| 20260831100232 | 52 | 255 | 0.0 | 1.0 | 0.00 | 0.00 | 0.00 | 59 | 1021.9 |
| 20260831095710 | 52 | 255 | 0.0 | 1.0 | 0.00 | 0.00 | 0.00 | 59 | 1021.9 |
| 20260831095208 | 52 | 255 | 0.0 | 0.0 | 0.00 | 0.00 | 0.00 | 59 | 1021.8 |
| 20260831094716 | 52 | 255 | 0.0 | 1.0 | 0.00 | 0.00 | 0.00 | 58 | 1021.8 |
| 20260831094235 | 53 | 255 | 0.0 | 1.0 | 0.00 | 0.00 | 0.00 | 58 | 1021.8 |
| 20260831093713 | 53 | 255 | 0.0 | 1.0 | 0.00 | 0.00 | 0.00 | 58 | 1021.8 |
| 20260831093210 | 53 | 255 | 0.0 | 1.0 | 0.00 | 0.00 | 0.00 | 57 | 1021.8 |
| 20260831092709 | 53 | 255 | 0.0 | 1.0 | 0.00 | 0.00 | 0.00 | 58 | 1021.7 |
| 20260831092206 | 53 | 255 | 0.0 | 1.0 | 0.00 | 0.00 | 0.00 | 58 | 1021.7 |
| 20260831091724 | 53 | 255 | 0.0 | 1.0 | 0.00 | 0.00 | 0.00 | 58 | 1021.6 |
| 20260831091236 | 53 | 255 | 0.0 | 1.0 | 0.00 | 0.00 | 0.00 | 59 | 1021.7 |
| 20260831090713 | 54 | 256 | 0.0 | 1.0 | 0.00 | 0.00 | 0.00 | 58 | 1021.7 |
| 20260831090211 | 54 | 256 | 0.0 | 0.0 | 0.00 | 0.00 | 0.00 | 58 | 1021.7 |
| 20260831085709 | 54 | 256 | 0.0 | 1.0 | 0.00 | 0.00 | 0.00 | 58 | 1021.7 |
| 20260831085206 | 54 | 256 | 0.0 | 1.0 | 0.00 | 0.00 | 0.00 | 58 | 1021.7 |
| 20260831084704 | 54 | 257 | 0.0 | 1.0 | 0.00 | 0.00 | 0.00 | 58 | 1021.8 |
| 20260831084243 | 54 | 257 | 0.0 | 1.0 | 0.00 | 0.00 | 0.00 | 58 | 1021.8 |
| 20260831083720 | 54 | 245 | 0.0 | 1.0 | 0.00 | 0.00 | 0.00 | 58 | 1021.9 |
| 20260831083218 | 54 | 245 | 0.0 | 1.0 | 0.00 | 0.00 | 0.00 | 58 | 1021.9 |
| 20260831082720 | 54 | 247 | 0.0 | 1.0 | 0.00 | 0.00 | 0.00 | 58 | 1021.8 |
| 20260831082218 | 54 | 247 | 0.0 | 2.0 | 0.00 | 0.00 | 0.00 | 58 | 1021.9 |
| 20260831081716 | 55 | 247 | 0.0 | 2.0 | 0.00 | 0.00 | 0.00 | 57 | 1021.9 |
| 20260831081214 | 54 | 250 | 0.0 | 1.0 | 0.00 | 0.00 | 0.00 | 57 | 1021.9 |
| 20260831080709 | 54 | 250 | 0.0 | 1.0 | 0.00 | 0.00 | 0.00 | 59 | 1021.9 |
| 20260831080209 | 54 | 250 | 0.0 | 1.0 | 0.00 | 0.00 | 0.00 | 60 | 1022.0 |
| 20260831075708 | 54 | 251 | 0.0 | 1.0 | 0.00 | 0.00 | 0.00 | 60 | 1022.0 |
| 20260831075226 | 54 | 250 | 0.0 | 1.0 | 0.00 | 0.00 | 0.00 | 60 | 1022.1 |
| 20260831074722 | 53 | 250 | 0.0 | 1.0 | 0.00 | 0.00 | 0.00 | 61 | 1022.0 |
| 20260831074240 | 53 | 250 | 0.0 | 1.0 | 0.00 | 0.00 | 0.00 | 61 | 1022.1 |
| 20260831073717 | 53 | 233 | 0.0 | 0.0 | 0.00 | 0.00 | 0.00 | 60 | 1022.1 |
| 20260831073213 | 53 | 233 | 0.0 | 0.0 | 0.00 | 0.00 | 0.00 | 61 | 1022.1 |
| 20260831072732 | 53 | 233 | 0.0 | 1.0 | 0.00 | 0.00 | 0.00 | 61 | 1022.1 |
| 20260831072209 | 53 | 233 | 0.0 | 1.0 | 0.00 | 0.00 | 0.00 | 61 | 1022.1 |
| 20260831071726 | 53 | 233 | 0.0 | 1.0 | 0.00 | 0.00 | 0.00 | 59 | 1022.1 |
| 20260831071203 | 54 | 233 | 0.0 | 1.0 | 0.00 | 0.00 | 0.00 | 59 | 1022.2 |
| 20260831070721 | 54 | 236 | 0.0 | 1.0 | 0.00 | 0.00 | 0.00 | 58 | 1022.2 |
| 20260831070239 | 54 | 236 | 0.0 | 1.0 | 0.00 | 0.00 | 0.00 | 59 | 1022.2 |
| 20260831065718 | 53 | 213 | 0.0 | 1.0 | 0.00 | 0.00 | 0.00 | 58 | 1022.3 |
| 20260831065215 | 53 | 221 | 0.0 | 1.0 | 0.00 | 0.00 | 0.00 | 58 | 1022.2 |
| 20260831064717 | 54 | 226 | 0.0 | 1.0 | 0.00 | 0.00 | 0.00 | 57 | 1022.3 |
| 20260831064252 | 53 | 278 | 0.0 | 1.0 | 0.00 | 0.00 | 0.00 | 57 | 1022.4 |
| 20260831063712 | 53 | 345 | 0.0 | 1.0 | 0.00 | 0.00 | 0.00 | 57 | 1022.4 |
| 20260831063209 | 53 | 346 | 0.0 | 1.0 | 0.00 | 0.00 | 0.00 | 57 | 1022.4 |
| 20260831062707 | 53 | 345 | 0.0 | 0.0 | 0.00 | 0.00 | 0.00 | 57 | 1022.4 |
| 20260831062205 | 54 | 345 | 0.0 | 1.0 | 0.00 | 0.00 | 0.00 | 56 | 1022.4 |
| 20260831061723 | 54 | 345 | 0.0 | 1.0 | 0.00 | 0.00 | 0.00 | 56 | 1022.4 |
| 20260831061241 | 54 | 345 | 0.0 | 0.0 | 0.00 | 0.00 | 0.00 | 55 | 1022.3 |
| 20260831060718 | 55 | 345 | 0.0 | 2.0 | 0.00 | 0.00 | 0.00 | 55 | 1022.4 |
| 20260831060216 | 55 | 345 | 0.0 | 2.0 | 0.00 | 0.00 | 0.00 | 55 | 1022.4 |
| 20260831055714 | 54 | 251 | 0.0 | 0.0 | 0.00 | 0.00 | 0.00 | 55 | 1022.4 |
| 20260831055211 | 55 | 250 | 0.0 | 0.0 | 0.00 | 0.00 | 0.00 | 55 | 1022.4 |
| 20260831054710 | 55 | 250 | 0.0 | 1.0 | 0.00 | 0.00 | 0.00 | 54 | 1022.4 |
| 20260831054208 | 55 | 32 | 0.0 | 1.0 | 0.00 | 0.00 | 0.00 | 53 | 1022.5 |
| 20260831053705 | 55 | 73 | 0.0 | 1.0 | 0.00 | 0.00 | 0.00 | 51 | 1022.5 |
| 20260831053223 | 55 | 78 | 0.0 | 1.0 | 0.00 | 0.00 | 0.00 | 51 | 1022.5 |
| 20260831052721 | 55 | 34 | 0.0 | 1.0 | 0.00 | 0.00 | 0.00 | 51 | 1022.5 |
| 20260831052219 | 55 | 324 | 0.0 | 0.0 | 0.00 | 0.00 | 0.00 | 52 | 1022.5 |
| 20260831051722 | 55 | 324 | 0.0 | 0.0 | 0.00 | 0.00 | 0.00 | 55 | 1022.5 |
| 20260831051220 | 54 | 323 | 0.0 | 0.0 | 0.00 | 0.00 | 0.00 | 57 | 1022.6 |
| 20260831050718 | 55 | 323 | 0.0 | 0.0 | 0.00 | 0.00 | 0.00 | 56 | 1022.6 |
| 20260831050216 | 54 | 323 | 0.0 | 0.0 | 0.00 | 0.00 | 0.00 | 58 | 1022.6 |
| 20260831045714 | 55 | 323 | 0.0 | 0.0 | 0.00 | 0.00 | 0.00 | 59 | 1022.6 |
| 20260831045231 | 55 | 330 | 0.0 | 0.0 | 0.00 | 0.00 | 0.00 | 60 | 1022.6 |
| 20260831044708 | 55 | 330 | 0.0 | 1.0 | 0.00 | 0.00 | 0.00 | 61 | 1022.7 |
| 20260831044227 | 55 | 331 | 0.0 | 1.0 | 0.00 | 0.00 | 0.00 | 62 | 1022.7 |
| 20260831043724 | 55 | 234 | 0.0 | 1.0 | 0.00 | 0.00 | 0.00 | 64 | 1022.6 |
| 20260831043222 | 55 | 234 | 0.0 | 1.0 | 0.00 | 0.00 | 0.00 | 68 | 1022.6 |
| 20260831042719 | 55 | 233 | 0.0 | 1.0 | 0.00 | 0.00 | 0.00 | 69 | 1022.7 |
| 20260831042218 | 55 | 228 | 0.0 | 0.0 | 0.00 | 0.00 | 0.00 | 70 | 1022.7 |
| 20260831041715 | 55 | 228 | 0.0 | 1.0 | 0.00 | 0.00 | 0.00 | 70 | 1022.6 |
| 20260831041213 | 55 | 228 | 0.0 | 1.0 | 0.00 | 0.00 | 0.00 | 70 | 1022.6 |
| 20260831040712 | 56 | 228 | 0.0 | 0.0 | 0.00 | 0.00 | 0.00 | 70 | 1022.6 |
| 20260831040209 | 56 | 228 | 0.0 | 0.0 | 0.00 | 0.00 | 0.00 | 71 | 1022.6 |
| 20260831035728 | 57 | 228 | 0.0 | 0.0 | 0.00 | 0.00 | 0.00 | 70 | 1022.5 |
| 20260831035208 | 57 | 228 | 0.0 | 1.0 | 0.00 | 0.00 | 0.00 | 71 | 1022.5 |
| 20260831034705 | 57 | 228 | 0.0 | 1.0 | 0.00 | 0.00 | 0.00 | 71 | 1022.5 |
| 20260831034204 | 57 | 225 | 0.0 | 0.0 | 0.00 | 0.00 | 0.00 | 71 | 1022.6 |
| 20260831033723 | 57 | 225 | 0.0 | 0.0 | 0.00 | 0.00 | 0.00 | 72 | 1022.4 |
| 20260831033221 | 58 | 225 | 0.0 | 1.0 | 0.00 | 0.00 | 0.00 | 71 | 1022.4 |
| 20260831032718 | 58 | 217 | 0.0 | 1.0 | 0.00 | 0.00 | 0.00 | 71 | 1022.2 |
| 20260831032216 | 58 | 217 | 0.0 | 1.0 | 0.00 | 0.00 | 0.00 | 72 | 1022.1 |
| 20260831031734 | 58 | 195 | 0.0 | 0.0 | 0.00 | 0.00 | 0.00 | 71 | 1022.1 |
| 20260831031211 | 58 | 195 | 0.0 | 0.0 | 0.00 | 0.00 | 0.00 | 70 | 1022.1 |
| 20260831030709 | 59 | 195 | 0.0 | 0.0 | 0.00 | 0.00 | 0.00 | 70 | 1022.0 |
| 20260831030207 | 59 | 195 | 0.0 | 1.0 | 0.00 | 0.00 | 0.00 | 71 | 1022.0 |
| 20260831025706 | 59 | 127 | 0.0 | 1.0 | 0.00 | 0.00 | 0.00 | 71 | 1022.1 |
| 20260831025224 | 59 | 82 | 0.0 | 2.0 | 0.00 | 0.00 | 0.00 | 70 | 1022.1 |
| 20260831024722 | 60 | 63 | 0.0 | 2.0 | 0.00 | 0.00 | 0.00 | 70 | 1022.2 |
| 20260831024218 | 60 | 57 | 0.0 | 1.0 | 0.00 | 0.00 | 0.00 | 69 | 1022.2 |
| 20260831023716 | 60 | 47 | 0.0 | 1.0 | 0.00 | 0.00 | 0.00 | 68 | 1022.1 |
| 20260831023218 | 60 | 48 | 0.0 | 1.0 | 0.00 | 0.00 | 0.00 | 68 | 1022.0 |
| 20260831022714 | 61 | 94 | 0.0 | 1.0 | 0.00 | 0.00 | 0.00 | 67 | 1022.0 |
| 20260831022212 | 61 | 57 | 0.0 | 1.0 | 0.00 | 0.00 | 0.00 | 66 | 1022.0 |
| 20260831021709 | 61 | 57 | 0.0 | 1.0 | 0.00 | 0.00 | 0.00 | 65 | 1021.9 |
| 20260831021207 | 62 | 297 | 0.0 | 1.0 | 0.00 | 0.00 | 0.00 | 64 | 1022.1 |
| 20260831020705 | 62 | 269 | 0.0 | 3.0 | 0.00 | 0.00 | 0.00 | 63 | 1022.0 |
| 20260831020224 | 63 | 266 | 0.0 | 3.0 | 0.00 | 0.00 | 0.00 | 63 | 1022.0 |
| 20260831015724 | 63 | 265 | 0.0 | 3.0 | 0.00 | 0.00 | 0.00 | 61 | 1022.0 |
| 20260831015221 | 63 | 250 | 0.0 | 3.0 | 0.00 | 0.00 | 0.00 | 60 | 1022.0 |
| 20260831014739 | 64 | 252 | 0.0 | 3.0 | 0.00 | 0.00 | 0.00 | 59 | 1022.1 |
| 20260831014217 | 64 | 257 | 1.0 | 3.0 | 0.00 | 0.00 | 0.00 | 58 | 1022.2 |
| 20260831013715 | 65 | 253 | 0.0 | 1.0 | 0.00 | 0.00 | 0.00 | 57 | 1022.2 |
| 20260831013213 | 65 | 181 | 0.0 | 1.0 | 0.00 | 0.00 | 0.00 | 56 | 1022.2 |
| 20260831012731 | 65 | 251 | 0.0 | 3.0 | 0.00 | 0.00 | 0.00 | 55 | 1022.3 |
| 20260831012207 | 66 | 275 | 0.0 | 3.0 | 0.00 | 0.00 | 0.00 | 55 | 1022.3 |
| 20260831011725 | 66 | 288 | 0.0 | 4.0 | 0.00 | 0.00 | 0.00 | 54 | 1022.3 |
| 20260831011206 | 66 | 231 | 0.0 | 4.0 | 0.00 | 0.00 | 0.00 | 54 | 1022.3 |
| 20260831010724 | 67 | 292 | 1.0 | 3.0 | 0.00 | 0.00 | 0.00 | 53 | 1022.3 |
| 20260831010222 | 68 | 304 | 1.0 | 3.0 | 0.00 | 0.00 | 0.00 | 52 | 1022.4 |
| 20260831005722 | 68 | 307 | 0.0 | 3.0 | 0.00 | 0.00 | 0.00 | 52 | 1022.2 |
| 20260831005219 | 68 | 317 | 1.0 | 3.0 | 0.00 | 0.00 | 0.00 | 51 | 1022.2 |
| 20260831004718 | 69 | 232 | 0.0 | 3.0 | 0.00 | 0.00 | 0.00 | 50 | 1022.2 |
| 20260831004217 | 69 | 250 | 1.0 | 3.0 | 0.00 | 0.00 | 0.00 | 49 | 1022.2 |
| 20260831003715 | 69 | 259 | 1.0 | 5.0 | 0.00 | 0.00 | 0.00 | 48 | 1022.3 |
| 20260831003212 | 70 | 252 | 1.0 | 5.0 | 0.00 | 0.00 | 0.00 | 47 | 1022.3 |
| 20260831002710 | 71 | 252 | 0.0 | 4.0 | 0.00 | 0.00 | 0.00 | 45 | 1022.3 |
| 20260831002208 | 71 | 233 | 1.0 | 4.0 | 0.00 | 0.00 | 0.00 | 45 | 1022.3 |
| 20260831001706 | 71 | 167 | 0.0 | 6.0 | 0.00 | 0.00 | 0.00 | 44 | 1022.3 |
| 20260831001224 | 71 | 281 | 1.0 | 6.0 | 0.00 | 0.00 | 0.00 | 44 | 1022.3 |
| 20260831000722 | 71 | 178 | 2.0 | 5.0 | 0.00 | 0.00 | 0.00 | 43 | 1022.2 |
| 20260831000220 | 71 | 203 | 0.0 | 3.0 | 0.00 | 0.00 | 0.00 | 42 | 1022.2 |
| 20260830235723 | 72 | 167 | 1.0 | 3.0 | 0.00 | 0.00 | 0.00 | 42 | 1022.1 |
| 20260830235241 | 72 | 288 | 0.0 | 5.0 | 0.00 | 0.00 | 0.00 | 41 | 1022.1 |
| 20260830234717 | 72 | 73 | 1.0 | 5.0 | 0.00 | 0.00 | 0.00 | 40 | 1022.2 |
| 20260830234232 | 72 | 281 | 0.0 | 4.0 | 0.00 | 0.00 | 0.00 | 40 | 1022.2 |
| 20260830233729 | 72 | 255 | 1.0 | 4.0 | 0.00 | 0.00 | 0.00 | 39 | 1022.3 |
| 20260830233206 | 73 | 246 | 1.0 | 3.0 | 0.00 | 0.00 | 0.00 | 38 | 1022.3 |
| 20260830232725 | 73 | 246 | 1.0 | 5.0 | 0.00 | 0.00 | 0.00 | 38 | 1022.1 |
| 20260830232243 | 73 | 178 | 1.0 | 5.0 | 0.00 | 0.00 | 0.00 | 38 | 1022.2 |
| 20260830231740 | 73 | 265 | 1.0 | 3.0 | 0.00 | 0.00 | 0.00 | 38 | 1022.3 |
| 20260830231218 | 73 | 332 | 1.0 | 3.0 | 0.00 | 0.00 | 0.00 | 37 | 1022.2 |
| 20260830230712 | 74 | 354 | 1.0 | 3.0 | 0.00 | 0.00 | 0.00 | 37 | 1022.2 |
| 20260830230210 | 74 | 292 | 1.0 | 4.0 | 0.00 | 0.00 | 0.00 | 37 | 1022.4 |
| 20260830225708 | 74 | 233 | 1.0 | 4.0 | 0.00 | 0.00 | 0.00 | 36 | 1022.4 |
| 20260830225225 | 74 | 309 | 1.0 | 3.0 | 0.00 | 0.00 | 0.00 | 36 | 1022.4 |
| 20260830224723 | 74 | 144 | 1.0 | 3.0 | 0.00 | 0.00 | 0.00 | 35 | 1022.5 |
| 20260830224241 | 74 | 250 | 1.0 | 3.0 | 0.00 | 0.00 | 0.00 | 36 | 1022.7 |
| 20260830223719 | 74 | 148 | 1.0 | 3.0 | 0.00 | 0.00 | 0.00 | 35 | 1022.6 |
| 20260830223217 | 74 | 246 | 1.0 | 4.0 | 0.00 | 0.00 | 0.00 | 35 | 1022.7 |
| 20260830222715 | 74 | 297 | 1.0 | 4.0 | 0.00 | 0.00 | 0.00 | 35 | 1022.8 |
| 20260830222212 | 74 | 7 | 1.0 | 5.0 | 0.00 | 0.00 | 0.00 | 35 | 1022.8 |
| 20260830221710 | 74 | 292 | 1.0 | 5.0 | 0.00 | 0.00 | 0.00 | 35 | 1022.8 |
| 20260830221212 | 75 | 291 | 1.0 | 4.0 | 0.00 | 0.00 | 0.00 | 34 | 1023.0 |
| 20260830220709 | 75 | 279 | 1.0 | 4.0 | 0.00 | 0.00 | 0.00 | 33 | 1023.1 |
| 20260830220227 | 76 | 256 | 1.0 | 3.0 | 0.00 | 0.00 | 0.00 | 33 | 1023.1 |
| 20260830215725 | 76 | 353 | 1.0 | 4.0 | 0.00 | 0.00 | 0.00 | 33 | 1023.1 |
| 20260830215222 | 76 | 94 | 1.0 | 4.0 | 0.00 | 0.00 | 0.00 | 33 | 1023.3 |
| 20260830214720 | 76 | 257 | 1.0 | 3.0 | 0.00 | 0.00 | 0.00 | 33 | 1023.2 |
| 20260830214217 | 77 | 257 | 1.0 | 3.0 | 0.00 | 0.00 | 0.00 | 32 | 1023.3 |
| 20260830213735 | 77 | 255 | 1.0 | 4.0 | 0.00 | 0.00 | 0.00 | 32 | 1023.3 |
| 20260830213211 | 77 | 35 | 1.0 | 4.0 | 0.00 | 0.00 | 0.00 | 31 | 1023.5 |
| 20260830212710 | 77 | 257 | 1.0 | 6.0 | 0.00 | 0.00 | 0.00 | 32 | 1023.5 |
| 20260830212207 | 78 | 247 | 1.0 | 6.0 | 0.00 | 0.00 | 0.00 | 31 | 1023.5 |
| 20260830211725 | 79 | 237 | 2.0 | 5.0 | 0.00 | 0.00 | 0.00 | 30 | 1023.5 |
| 20260830211223 | 79 | 279 | 1.0 | 5.0 | 0.00 | 0.00 | 0.00 | 29 | 1023.6 |
| 20260830210721 | 79 | 201 | 1.0 | 3.0 | 0.00 | 0.00 | 0.00 | 30 | 1023.6 |
| 20260830210239 | 79 | 216 | 1.0 | 3.0 | 0.00 | 0.00 | 0.00 | 30 | 1023.7 |
| 20260830205736 | 78 | 53 | 1.0 | 5.0 | 0.00 | 0.00 | 0.00 | 30 | 1023.7 |
| 20260830205213 | 79 | 241 | 2.0 | 5.0 | 0.00 | 0.00 | 0.00 | 30 | 1023.8 |
| 20260830204730 | 80 | 94 | 1.0 | 3.0 | 0.00 | 0.00 | 0.00 | 29 | 1023.8 |
| 20260830204248 | 79 | 122 | 1.0 | 5.0 | 0.00 | 0.00 | 0.00 | 30 | 1023.8 |
| 20260830203724 | 79 | 219 | 1.0 | 5.0 | 0.00 | 0.00 | 0.00 | 29 | 1023.8 |
| 20260830203222 | 79 | 302 | 1.0 | 5.0 | 0.00 | 0.00 | 0.00 | 30 | 1023.8 |
| 20260830202724 | 79 | 157 | 1.0 | 4.0 | 0.00 | 0.00 | 0.00 | 29 | 1023.9 |
| 20260830202222 | 80 | 263 | 1.0 | 4.0 | 0.00 | 0.00 | 0.00 | 29 | 1023.9 |
| 20260830201720 | 80 | 108 | 1.0 | 4.0 | 0.00 | 0.00 | 0.00 | 28 | 1023.9 |
| 20260830201217 | 79 | 251 | 0.0 | 4.0 | 0.00 | 0.00 | 0.00 | 30 | 1023.8 |
| 20260830200715 | 79 | 304 | 2.0 | 4.0 | 0.00 | 0.00 | 0.00 | 30 | 1023.9 |
| 20260830200209 | 79 | 164 | 1.0 | 4.0 | 0.00 | 0.00 | 0.00 | 29 | 1023.9 |
| 20260830195749 | 79 | 255 | 2.0 | 4.0 | 0.00 | 0.00 | 0.00 | 29 | 1023.8 |
| 20260830195225 | 79 | 238 | 1.0 | 3.0 | 0.00 | 0.00 | 0.00 | 29 | 1023.9 |
| 20260830194723 | 79 | 161 | 1.0 | 3.0 | 0.00 | 0.00 | 0.00 | 29 | 1023.9 |
| 20260830194222 | 80 | 282 | 1.0 | 3.0 | 0.00 | 0.00 | 0.00 | 29 | 1024.0 |
| 20260830193718 | 80 | 274 | 1.0 | 3.0 | 0.00 | 0.00 | 0.00 | 29 | 1024.0 |
| 20260830193236 | 79 | 52 | 1.0 | 3.0 | 0.00 | 0.00 | 0.00 | 29 | 1024.0 |
| 20260830192712 | 80 | 117 | 1.0 | 5.0 | 0.00 | 0.00 | 0.00 | 29 | 1024.1 |
| 20260830192230 | 81 | 193 | 1.0 | 5.0 | 0.00 | 0.00 | 0.00 | 28 | 1024.2 |
| 20260830191749 | 81 | 267 | 0.0 | 3.0 | 0.00 | 0.00 | 0.00 | 28 | 1024.1 |
| 20260830191225 | 80 | 243 | 1.0 | 3.0 | 0.00 | 0.00 | 0.00 | 30 | 1024.2 |
| 20260830190724 | 79 | 258 | 1.0 | 3.0 | 0.00 | 0.00 | 0.00 | 29 | 1024.2 |
| 20260830190221 | 79 | 266 | 0.0 | 5.0 | 0.00 | 0.00 | 0.00 | 30 | 1024.3 |
| 20260830185720 | 79 | 263 | 1.0 | 5.0 | 0.00 | 0.00 | 0.00 | 29 | 1024.3 |
| 20260830185221 | 80 | 251 | 1.0 | 2.0 | 0.00 | 0.00 | 0.00 | 28 | 1024.3 |
| 20260830184719 | 80 | 261 | 1.0 | 3.0 | 0.00 | 0.00 | 0.00 | 28 | 1024.4 |
| 20260830184218 | 80 | 152 | 1.0 | 3.0 | 0.00 | 0.00 | 0.00 | 28 | 1024.4 |
| 20260830183716 | 79 | 256 | 0.0 | 4.0 | 0.00 | 0.00 | 0.00 | 29 | 1024.4 |
| 20260830183214 | 80 | 293 | 1.0 | 4.0 | 0.00 | 0.00 | 0.00 | 28 | 1024.5 |
| 20260830182732 | 79 | 277 | 1.0 | 3.0 | 0.00 | 0.00 | 0.00 | 29 | 1024.4 |
| 20260830182228 | 79 | 255 | 0.0 | 2.0 | 0.00 | 0.00 | 0.00 | 29 | 1024.4 |
| 20260830181726 | 79 | 49 | 1.0 | 3.0 | 0.00 | 0.00 | 0.00 | 30 | 1024.4 |
| 20260830181224 | 79 | 311 | 1.0 | 3.0 | 0.00 | 0.00 | 0.00 | 29 | 1024.5 |
| 20260830180743 | 78 | 269 | 0.0 | 4.0 | 0.00 | 0.00 | 0.00 | 30 | 1024.4 |
| 20260830180220 | 78 | 311 | 1.0 | 4.0 | 0.00 | 0.00 | 0.00 | 31 | 1024.3 |
| 20260830175739 | 76 | 352 | 1.0 | 3.0 | 0.00 | 0.00 | 0.00 | 32 | 1024.3 |
| 20260830175215 | 76 | 261 | 1.0 | 3.0 | 0.00 | 0.00 | 0.00 | 31 | 1024.2 |
| 20260830174713 | 76 | 207 | 1.0 | 3.0 | 0.00 | 0.00 | 0.00 | 31 | 1024.3 |
| 20260830174210 | 76 | 90 | 0.0 | 2.0 | 0.00 | 0.00 | 0.00 | 31 | 1024.2 |
| 20260830173728 | 77 | 275 | 1.0 | 2.0 | 0.00 | 0.00 | 0.00 | 30 | 1024.2 |
| 20260830173226 | 76 | 285 | 0.0 | 6.0 | 0.00 | 0.00 | 0.00 | 30 | 1024.1 |
| 20260830172725 | 76 | 79 | 1.0 | 6.0 | 0.00 | 0.00 | 0.00 | 30 | 1024.1 |
| 20260830172242 | 75 | 11 | 1.0 | 4.0 | 0.00 | 0.00 | 0.00 | 31 | 1024.0 |
| 20260830171739 | 75 | 8 | 1.0 | 3.0 | 0.00 | 0.00 | 0.00 | 31 | 1024.0 |
| 20260830171220 | 75 | 299 | 0.0 | 3.0 | 0.00 | 0.00 | 0.00 | 31 | 1023.9 |
| 20260830170717 | 75 | 242 | 1.0 | 3.0 | 0.00 | 0.00 | 0.00 | 31 | 1023.9 |
| 20260830170216 | 74 | 219 | 0.0 | 3.0 | 0.00 | 0.00 | 0.00 | 31 | 1023.9 |
| 20260830165714 | 74 | 292 | 1.0 | 3.0 | 0.00 | 0.00 | 0.00 | 30 | 1023.8 |
| 20260830165232 | 74 | 161 | 1.0 | 3.0 | 0.00 | 0.00 | 0.00 | 31 | 1023.8 |
| 20260830164728 | 73 | 80 | 1.0 | 4.0 | 0.00 | 0.00 | 0.00 | 31 | 1023.8 |
| 20260830164226 | 73 | 37 | 1.0 | 4.0 | 0.00 | 0.00 | 0.00 | 32 | 1023.8 |
| 20260830163724 | 72 | 266 | 1.0 | 3.0 | 0.00 | 0.00 | 0.00 | 33 | 1023.8 |
| 20260830163224 | 72 | 54 | 0.0 | 4.0 | 0.00 | 0.00 | 0.00 | 33 | 1023.7 |
| 20260830162722 | 72 | 293 | 1.0 | 2.0 | 0.00 | 0.00 | 0.00 | 32 | 1023.7 |
| 20260830162220 | 71 | 243 | 0.0 | 2.0 | 0.00 | 0.00 | 0.00 | 34 | 1023.6 |
| 20260830161718 | 70 | 289 | 0.0 | 4.0 | 0.00 | 0.00 | 0.00 | 35 | 1023.6 |
| 20260830161215 | 69 | 274 | 1.0 | 4.0 | 0.00 | 0.00 | 0.00 | 35 | 1023.6 |
| 20260830160734 | 69 | 293 | 1.0 | 3.0 | 0.00 | 0.00 | 0.00 | 35 | 1023.6 |
| 20260830160210 | 69 | 272 | 1.0 | 4.0 | 0.00 | 0.00 | 0.00 | 35 | 1023.6 |
| 20260830155751 | 69 | 293 | 1.0 | 4.0 | 0.00 | 0.00 | 0.00 | 36 | 1023.6 |
| 20260830155246 | 68 | 229 | 1.0 | 4.0 | 0.00 | 0.00 | 0.00 | 36 | 1023.6 |
| 20260830154743 | 68 | 279 | 1.0 | 6.0 | 0.00 | 0.00 | 0.00 | 36 | 1023.6 |
| 20260830154220 | 68 | 251 | 2.0 | 6.0 | 0.00 | 0.00 | 0.00 | 37 | 1023.5 |
| 20260830153717 | 67 | 264 | 1.0 | 3.0 | 0.00 | 0.00 | 0.00 | 38 | 1023.6 |
| 20260830153235 | 67 | 264 | 1.0 | 2.0 | 0.00 | 0.00 | 0.00 | 39 | 1023.6 |
| 20260830152731 | 67 | 151 | 0.0 | 5.0 | 0.00 | 0.00 | 0.00 | 40 | 1023.5 |
| 20260830152212 | 66 | 265 | 1.0 | 5.0 | 0.00 | 0.00 | 0.00 | 41 | 1023.6 |
| 20260830151730 | 66 | 234 | 0.0 | 3.0 | 0.00 | 0.00 | 0.00 | 41 | 1023.6 |
| 20260830151248 | 66 | 275 | 0.0 | 3.0 | 0.00 | 0.00 | 0.00 | 40 | 1023.6 |
| 20260830150724 | 66 | 257 | 1.0 | 3.0 | 0.00 | 0.00 | 0.00 | 39 | 1023.6 |
| 20260830150222 | 66 | 248 | 1.0 | 3.0 | 0.00 | 0.00 | 0.00 | 38 | 1023.6 |
| 20260830145721 | 66 | 304 | 0.0 | 2.0 | 0.00 | 0.00 | 0.00 | 38 | 1023.6 |
| 20260830145239 | 65 | 245 | 0.0 | 2.0 | 0.00 | 0.00 | 0.00 | 38 | 1023.5 |
| 20260830144715 | 65 | 150 | 0.0 | 2.0 | 0.00 | 0.00 | 0.00 | 38 | 1023.5 |
| 20260830144215 | 64 | 70 | 0.0 | 3.0 | 0.00 | 0.00 | 0.00 | 39 | 1023.5 |
| 20260830143712 | 64 | 300 | 0.0 | 3.0 | 0.00 | 0.00 | 0.00 | 38 | 1023.5 |
| 20260830143250 | 64 | 344 | 0.0 | 2.0 | 0.00 | 0.00 | 0.00 | 39 | 1023.4 |
| 20260830142727 | 63 | 218 | 1.0 | 2.0 | 0.00 | 0.00 | 0.00 | 39 | 1023.3 |
| 20260830142225 | 63 | 159 | 0.0 | 4.0 | 0.00 | 0.00 | 0.00 | 38 | 1023.3 |
| 20260830141723 | 63 | 285 | 0.0 | 4.0 | 0.00 | 0.00 | 0.00 | 38 | 1023.3 |
| 20260830141221 | 63 | 264 | 1.0 | 3.0 | 0.00 | 0.00 | 0.00 | 38 | 1023.1 |
| 20260830140719 | 62 | 255 | 0.0 | 2.0 | 0.00 | 0.00 | 0.00 | 40 | 1023.2 |
| 20260830140216 | 62 | 257 | 0.0 | 1.0 | 0.00 | 0.00 | 0.00 | 41 | 1023.1 |
| 20260830135716 | 62 | 248 | 0.0 | 2.0 | 0.00 | 0.00 | 0.00 | 40 | 1023.1 |
| 20260830135217 | 62 | 259 | 0.0 | 2.0 | 0.00 | 0.00 | 0.00 | 41 | 1023.1 |
| 20260830134715 | 61 | 284 | 0.0 | 3.0 | 0.00 | 0.00 | 0.00 | 41 | 1023.0 |
| 20260830134232 | 61 | 236 | 1.0 | 4.0 | 0.00 | 0.00 | 0.00 | 42 | 1023.1 |
| 20260830133748 | 61 | 215 | 0.0 | 3.0 | 0.00 | 0.00 | 0.00 | 42 | 1022.9 |
| 20260830133245 | 61 | 281 | 0.0 | 2.0 | 0.00 | 0.00 | 0.00 | 42 | 1022.9 |
| 20260830132722 | 61 | 264 | 0.0 | 2.0 | 0.00 | 0.00 | 0.00 | 43 | 1022.8 |
| 20260830132240 | 61 | 257 | 0.0 | 2.0 | 0.00 | 0.00 | 0.00 | 43 | 1022.8 |
| 20260830131736 | 61 | 250 | 0.0 | 2.0 | 0.00 | 0.00 | 0.00 | 42 | 1022.7 |
| 20260830131212 | 61 | 250 | 0.0 | 2.0 | 0.00 | 0.00 | 0.00 | 40 | 1022.7 |
| 20260830130729 | 61 | 257 | 0.0 | 2.0 | 0.00 | 0.00 | 0.00 | 40 | 1022.7 |
| 20260830130227 | 61 | 266 | 1.0 | 2.0 | 0.00 | 0.00 | 0.00 | 40 | 1022.6 |
| 20260830125747 | 61 | 269 | 0.0 | 2.0 | 0.00 | 0.00 | 0.00 | 41 | 1022.6 |
| 20260830125223 | 61 | 245 | 0.0 | 3.0 | 0.00 | 0.00 | 0.00 | 42 | 1022.6 |
| 20260830124721 | 61 | 252 | 0.0 | 3.0 | 0.00 | 0.00 | 0.00 | 43 | 1022.6 |
| 20260830124240 | 61 | 237 | 1.0 | 4.0 | 0.00 | 0.00 | 0.00 | 42 | 1022.5 |
| 20260830123717 | 61 | 266 | 1.0 | 4.0 | 0.00 | 0.00 | 0.00 | 44 | 1022.5 |
| 20260830123215 | 61 | 261 | 0.0 | 3.0 | 0.00 | 0.00 | 0.00 | 45 | 1022.5 |
| 20260830122732 | 61 | 221 | 0.0 | 3.0 | 0.00 | 0.00 | 0.00 | 46 | 1022.6 |
| 20260830122229 | 61 | 288 | 1.0 | 3.0 | 0.00 | 0.00 | 0.00 | 47 | 1022.5 |
| 20260830121728 | 61 | 125 | 0.0 | 3.0 | 0.00 | 0.00 | 0.00 | 47 | 1022.5 |
| 20260830121225 | 61 | 307 | 0.0 | 2.0 | 0.00 | 0.00 | 0.00 | 46 | 1022.4 |
| 20260830120723 | 61 | 254 | 0.0 | 1.0 | 0.00 | 0.00 | 0.00 | 47 | 1022.5 |
| 20260830120220 | 61 | 219 | 0.0 | 2.0 | 0.00 | 0.00 | 0.00 | 48 | 1022.4 |
| 20260830115718 | 60 | 253 | 0.0 | 3.0 | 0.00 | 0.00 | 0.00 | 47 | 1022.5 |
| 20260830115220 | 60 | 232 | 1.0 | 3.0 | 0.00 | 0.00 | 0.00 | 48 | 1022.3 |
| 20260830114717 | 60 | 264 | 0.0 | 4.0 | 0.00 | 0.00 | 0.00 | 50 | 1022.4 |
| 20260830114215 | 60 | 250 | 0.0 | 1.0 | 0.00 | 0.00 | 0.00 | 53 | 1022.4 |
| 20260830113714 | 59 | 255 | 0.0 | 2.0 | 0.00 | 0.00 | 0.00 | 57 | 1022.4 |
| 20260830113211 | 59 | 258 | 1.0 | 3.0 | 0.00 | 0.00 | 0.00 | 58 | 1022.5 |
| 20260830112729 | 59 | 270 | 1.0 | 3.0 | 0.00 | 0.00 | 0.00 | 58 | 1022.5 |
| 20260830112227 | 60 | 245 | 0.0 | 1.0 | 0.00 | 0.00 | 0.00 | 58 | 1022.5 |
| 20260830111725 | 60 | 248 | 0.0 | 2.0 | 0.00 | 0.00 | 0.00 | 56 | 1022.4 |
| 20260830111243 | 60 | 253 | 0.0 | 2.0 | 0.00 | 0.00 | 0.00 | 56 | 1022.4 |
| 20260830110720 | 60 | 272 | 1.0 | 2.0 | 0.00 | 0.00 | 0.00 | 56 | 1022.4 |
| 20260830110219 | 60 | 238 | 1.0 | 2.0 | 0.00 | 0.00 | 0.00 | 57 | 1022.4 |
| 20260830105717 | 60 | 221 | 1.0 | 4.0 | 0.00 | 0.00 | 0.00 | 57 | 1022.4 |
| 20260830105214 | 60 | 255 | 1.0 | 4.0 | 0.00 | 0.00 | 0.00 | 58 | 1022.4 |
| 20260830104752 | 60 | 262 | 1.0 | 3.0 | 0.00 | 0.00 | 0.00 | 59 | 1022.5 |
| 20260830104250 | 60 | 197 | 0.0 | 4.0 | 0.00 | 0.00 | 0.00 | 58 | 1022.5 |
| 20260830103747 | 60 | 260 | 1.0 | 4.0 | 0.00 | 0.00 | 0.00 | 58 | 1022.4 |
| 20260830103225 | 59 | 261 | 0.0 | 3.0 | 0.00 | 0.00 | 0.00 | 58 | 1022.4 |
| 20260830102723 | 60 | 236 | 0.0 | 2.0 | 0.00 | 0.00 | 0.00 | 58 | 1022.4 |
| 20260830102221 | 60 | 256 | 0.0 | 1.0 | 0.00 | 0.00 | 0.00 | 57 | 1022.4 |